Dalzell, IL

12:28 AM CDT on September 26, 2016 (GMT -0500)
Illinois Valley Regional-Duncan

Weather History for KVYS - July, 2012

Change the Weather History Date:

Monday, July 9, 2012

  Actual Average Record
Temperature  
Mean Temperature 76 °F -  
Max Temperature 90 °F 87 °F 97 °F (1974)
Min Temperature 64 °F 64 °F 52 °F (1968)
Cooling Degree Days 12    
Growing Degree Days 26 (Base 50)    
Moisture  
Dew Point 59 °F    
Average Humidity 54    
Maximum Humidity 78    
Minimum Humidity 30    
Precipitation  
Precipitation 0.00 in - - ()
Sea Level Pressure  
Sea Level Pressure 30.05 in    
Wind  
Wind Speed 3 mph (North)    
Max Wind Speed 12 mph    
Max Gust Speed -    
Visibility 10 miles    
Events      
Averages and records for this station are not official NWS values.
T = Trace of Precipitation, MM = Missing Value Source: NWS Daily Summary

Daily Weather History Graph

Daily Weather History Graph

Search for Another Location

Airport or City:

Trip Planner

Search our weather history database for the weather conditions in past years. The results will help you decide how hot, cold, wet, or windy it might be!

Date:

Astronomy

Jul. 09, 2012 Rise Set
Actual Time 5:32 AM CDT 8:31 PM CDT
Civil Twilight 4:58 AM CDT 9:04 PM CDT
Nautical Twilight 4:16 AM CDT 9:46 PM CDT
Astronomical Twilight 3:27 AM CDT 10:35 PM CDT
Moon 11:41 PM CDT (7/9) 12:04 PM CDT (7/9)
Length of Visible Light 16h 05m
Length of Day
14h 59m
Waning Gibbous, 63% of the Moon is Illuminated
Jul 9
Waning Gibbous
Jul 10
Last Quarter
Jul 18
New
Jul 26
First Quarter
Aug 1
Full

Hourly Weather History & Observations

Time (CDT) Temp. Heat Index Dew Point Humidity Pressure Visibility Wind Dir Wind Speed Gust Speed Precip Events Conditions
12:15 AM 73.4 °F - 56.3 °F 55% 30.06 in 10.0 mi Calm Calm - N/A   Clear
12:35 AM 72.1 °F - 57.4 °F 60% 30.07 in 10.0 mi Calm Calm - N/A   Clear
12:55 AM 72.7 °F - 57.2 °F 58% 30.07 in 10.0 mi Calm Calm - N/A   Clear
1:15 AM 71.4 °F - 57.7 °F 62% 30.07 in 10.0 mi Calm Calm - N/A   Clear
1:35 AM 70.9 °F - 58.3 °F 64% 30.07 in 10.0 mi Calm Calm - N/A   Clear
1:55 AM 68.9 °F - 59.0 °F 71% 30.07 in 10.0 mi Calm Calm - N/A   Clear
2:15 AM 68.4 °F - 59.4 °F 73% 30.07 in 10.0 mi Calm Calm - N/A   Clear
2:35 AM 67.1 °F - 59.2 °F 76% 30.06 in 10.0 mi Calm Calm - N/A   Clear
2:55 AM 66.7 °F - 59.2 °F 77% 30.06 in 10.0 mi WNW 4.6 mph - N/A   Clear
3:15 AM 67.1 °F - 59.9 °F 78% 30.06 in 10.0 mi WNW 4.6 mph - N/A   Clear
3:35 AM 66.6 °F - 59.0 °F 77% 30.07 in 10.0 mi WNW 3.5 mph - N/A   Clear
5:15 AM 65.8 °F - 57.7 °F 75% 30.07 in 10.0 mi NW 5.8 mph - N/A   Clear
5:35 AM 64.6 °F - 57.6 °F 78% 30.07 in 10.0 mi Calm Calm - N/A   Clear
5:55 AM 65.5 °F - 57.4 °F 75% 30.07 in 10.0 mi Calm Calm - N/A   Clear
6:15 AM 65.1 °F - 57.4 °F 76% 30.08 in 10.0 mi Calm Calm - N/A   Clear
6:35 AM 66.4 °F - 58.1 °F 75% 30.08 in 10.0 mi Calm Calm - N/A   Clear
6:55 AM 66.7 °F - 59.0 °F 76% 30.08 in 10.0 mi NNW 3.5 mph - N/A   Clear
7:15 AM 69.3 °F - 58.6 °F 69% 30.08 in 10.0 mi NW 5.8 mph - N/A   Clear
7:35 AM 72.0 °F - 58.3 °F 62% 30.07 in 10.0 mi NNW 8.1 mph - N/A   Clear
7:55 AM 73.9 °F - 58.3 °F 58% 30.08 in 10.0 mi NNW 4.6 mph - N/A   Clear
8:15 AM 75.4 °F - 57.6 °F 54% 30.07 in 10.0 mi NW 5.8 mph - N/A   Clear
8:35 AM 77.2 °F - 58.1 °F 52% 30.08 in 10.0 mi NW 5.8 mph - N/A   Clear
8:55 AM 77.9 °F - 56.8 °F 48% 30.08 in 10.0 mi NW 4.6 mph - N/A   Clear
9:15 AM 80.1 °F 80.5 °F 57.4 °F 46% 30.08 in 10.0 mi NW 5.8 mph - N/A   Clear
9:35 AM 80.2 °F 80.5 °F 57.0 °F 45% 30.07 in 10.0 mi WNW 4.6 mph - N/A   Clear
9:55 AM 80.8 °F 80.7 °F 55.8 °F 42% 30.08 in 10.0 mi NW 4.6 mph - N/A   Clear
10:15 AM 81.7 °F 81.1 °F 54.5 °F 39% 30.07 in 10.0 mi NW 3.5 mph - N/A   Clear
10:35 AM 82.8 °F - 52.9 °F 36% 30.07 in 10.0 mi NNW 5.8 mph - N/A   Clear
10:55 AM 83.1 °F 82.2 °F 55.2 °F 38% 30.07 in 10.0 mi NW 5.8 mph - N/A   Clear
11:15 AM 83.8 °F 82.8 °F 55.9 °F 38% 30.07 in 10.0 mi North 5.8 mph - N/A   Clear
11:35 AM 84.2 °F 83.5 °F 57.2 °F 40% 30.07 in 10.0 mi Calm Calm - N/A   Clear
11:55 AM 86.0 °F 85.4 °F 59.0 °F 40% 30.06 in 10.0 mi NNW 3.5 mph - N/A   Clear
12:15 PM 85.6 °F 85.0 °F 58.8 °F 40% 30.06 in 10.0 mi North 4.6 mph - N/A   Clear
12:35 PM 86.4 °F 85.4 °F 58.1 °F 38% 30.06 in 10.0 mi North 4.6 mph - N/A   Clear
12:55 PM 87.1 °F 86.1 °F 57.6 °F 37% 30.05 in 10.0 mi NNW 5.8 mph - N/A   Clear
1:15 PM 86.7 °F 85.6 °F 57.4 °F 37% 30.05 in 10.0 mi NNE 9.2 mph - N/A   Clear
1:35 PM 88.0 °F 86.3 °F 55.2 °F 33% 30.05 in 10.0 mi NNW 4.6 mph - N/A   Clear
1:55 PM 88.0 °F 86.1 °F 55.0 °F 32% 30.05 in 10.0 mi North 6.9 mph - N/A   Clear
2:15 PM 88.0 °F 86.5 °F 55.9 °F 34% 30.04 in 10.0 mi NNE 5.8 mph - N/A   Scattered Clouds
2:35 PM 86.4 °F 84.7 °F 55.2 °F 34% 30.03 in 10.0 mi WNW 6.9 mph - N/A   Scattered Clouds
2:55 PM 88.3 °F 86.5 °F 55.2 °F 32% 30.03 in 10.0 mi West 5.8 mph - N/A   Clear
3:15 PM 88.5 °F 86.9 °F 55.6 °F 33% 30.02 in 10.0 mi NNW 3.5 mph - N/A   Clear
3:35 PM 89.2 °F 87.3 °F 54.7 °F 31% 30.02 in 10.0 mi North 5.8 mph - N/A   Clear
3:55 PM 89.1 °F 86.9 °F 54.1 °F 30% 30.02 in 10.0 mi ENE 4.6 mph - N/A   Clear
4:15 PM 89.2 °F 87.5 °F 55.9 °F 32% 30.01 in 10.0 mi NW 10.4 mph - N/A   Scattered Clouds
4:35 PM 88.2 °F 86.5 °F 55.6 °F 33% 30.01 in 10.0 mi NW 5.8 mph - N/A   Scattered Clouds
4:55 PM 87.1 °F 85.7 °F 56.3 °F 35% 30.01 in 10.0 mi North 5.8 mph - N/A   Mostly Cloudy
5:15 PM 85.3 °F 85.7 °F 61.7 °F 45% 30.00 in 10.0 mi NNW 6.9 mph - N/A   Overcast
5:35 PM 84.2 °F 85.6 °F 64.4 °F 51% 30.00 in 10.0 mi North 8.1 mph - N/A   Mostly Cloudy
5:55 PM 83.5 °F 85.5 °F 66.0 °F 55% 30.00 in 10.0 mi North 6.9 mph - N/A   Mostly Cloudy
6:15 PM 84.4 °F 86.8 °F 66.7 °F 55% 30.00 in 10.0 mi North 9.2 mph - N/A   Mostly Cloudy
6:35 PM 84.2 °F 85.0 °F 62.8 °F 48% 30.00 in 10.0 mi NNE 9.2 mph - N/A   Mostly Cloudy
6:55 PM 81.5 °F 83.1 °F 64.2 °F 56% 30.01 in 10.0 mi NE 8.1 mph - N/A   Scattered Clouds
7:15 PM 81.5 °F 82.9 °F 64.0 °F 55% 30.00 in 10.0 mi ENE 8.1 mph - N/A   Mostly Cloudy
7:35 PM 80.8 °F 82.2 °F 63.7 °F 56% 30.01 in 10.0 mi ENE 6.9 mph - N/A   Scattered Clouds
7:55 PM 80.2 °F 81.8 °F 63.5 °F 57% 30.01 in 10.0 mi ENE 9.2 mph - N/A   Scattered Clouds
8:15 PM 78.4 °F - 63.5 °F 60% 30.02 in 10.0 mi ENE 11.5 mph - N/A   Clear
8:35 PM 77.9 °F - 62.2 °F 58% 30.03 in 10.0 mi East 10.4 mph - N/A   Clear
8:55 PM 76.5 °F - 62.2 °F 61% 30.03 in 10.0 mi East 5.8 mph - N/A   Clear
9:15 PM 76.3 °F - 60.1 °F 57% 30.03 in 10.0 mi East 6.9 mph - N/A   Clear
9:35 PM 75.2 °F - 60.3 °F 60% 30.04 in 10.0 mi ENE 8.1 mph - N/A   Clear
9:55 PM 75.2 °F - 59.0 °F 57% 30.04 in 10.0 mi ENE 6.9 mph - N/A   Clear
10:15 PM 73.0 °F - 58.6 °F 61% 30.05 in 10.0 mi East 5.8 mph - N/A   Clear
10:35 PM 72.7 °F - 59.0 °F 62% 30.05 in 10.0 mi East 5.8 mph - N/A   Clear
10:55 PM 71.6 °F - 59.0 °F 64% 30.05 in 10.0 mi ENE 3.5 mph - N/A   Clear
11:15 PM 70.7 °F - 59.2 °F 67% 30.05 in 10.0 mi East 4.6 mph - N/A   Clear
11:35 PM 71.1 °F - 59.5 °F 67% 30.06 in 10.0 mi East 4.6 mph - N/A   Clear
11:55 PM 70.2 °F - 59.5 °F 69% 30.06 in 10.0 mi ENE 4.6 mph - N/A   Clear